{"data":{"norad_id":68096,"intl_designator":"2026-042AD","name":"STARLINK-36328","alt_names":[],"object_type":"PAYLOAD","status":"ACTIVE","operator":null,"country":"US","launch_date":"2026-03-04","launch_site_code":"AFETR","launch_vehicle":null,"mission":null,"orbit_class":"UNKNOWN","rcs_meters":null,"size_class":null,"mass_kg":null,"dimensions":null,"purposes":["comms"],"wikipedia_slug":null,"has_3d_model":false,"image_url":null,"decayed_at":null,"tle_current":{"epoch":"2026-05-25T03:05:24.580608Z","epoch_age_seconds":63991,"freshness":"FRESH","line1":"1 68096U 26042AD  26145.12875672 -.00032828  00000+0 -96728-3 0  9998","line2":"2 68096  53.1587 183.2882 0001244  74.0886 286.0253 15.34315292 14002","mean_motion":15.34315292,"eccentricity":0.0001244,"inclination_deg":53.1587,"raan_deg":183.2882,"arg_perigee_deg":74.0886,"mean_anomaly_deg":286.0253,"bstar":-0.00096728,"rev_number":1400,"period_min":93.852939321418,"perigee_km":462.10398997023,"apogee_km":463.80605366526,"semimajor_km":6841.0920218177,"source":"CELESTRAK","updated_at":"2026-05-25T13:38:21.839979Z"}}}